GSAT0219 (PRN E36) (43566 NORAD) Tracking and Keplerian Element Data

This shows tracking and keplerian element data for the satellite.

Feedback or suggestion? Click here.




ElementValue
Catalog43566
NameGSAT0219 (PRN E36)
Epoch Orbit199
Epoch Day321.82731951
Epoch Year2018
RAAN56.9371
Inclination56.4104
Eccentricity0.0003894
Argument of Perigee253.7265
Mean Anonmoly106.2365
Mean Motion1.70476353
Decay Rate-5.6E-07
L11 43566U 18060C 18321.82731951 -.00000056 00000-0 00000+0 0 9991
L22 43566 56.4104 56.9371 0003894 253.7265 106.2365 1.70476353 1999

Live tracking and technical data element details for GSAT0219 (PRN E36) (NORAD 43566). GSAT0219 (PRN E36) can be tracked NOW for your location showing map with azimuth and elevation plus other details from your city location.

Track the satellite on the map from your city or location and see movement details for azimuth, elevation, latitude, longitude, range, height, and movement on the map or in text.







IsCatalogInMostPopularTable: catalog: 43566, numindb: 37
Update: records affected: 1



GetName: 43566 GSAT0219 (PRN E36)

Hit Count: updated at: Tue, 20 Nov 2018 11:46:34 GMT